Regional Weather Roundup
Issued by NWS

Home | Current Version | Previous Version | Graphics & Text | Print | Product List | Glossary Off
Versions: 1 2 3 4 5 6 7 8 9 10 11 12 13 14 15 16 17 18 19 20 21 22 23 24 25 26 27 28 29 30 31 32 33 34 35 36 37 38 39 40 41 42 43 44 45 46 47 48 49 50

000
ASUS43 KMPX 301301
RWRMN
WEATHER ROUNDUP FOR MINNESOTA
NATIONAL WEATHER SERVICE TWIN CITIES/CHANHASSEN MN
800 AM CDT TUE JUN 30 2015


NOTE: "FAIR" INDICATES FEW OR NO CLOUDS BELOW 12,000 FEET WITH NO
SIGNIFICANT WEATHER AND/OR OBSTRUCTIONS TO VISIBILITY. N/A MEANS
CURRENT SKY AND/OR WEATHER CONDITIONS ARE NOT AVAILABLE.

MNZ060>063-068>070-301400-
   Twin Cities Metro

CITY           SKY/WX    TMP DP  RH WIND       PRES   REMARKS
TWIN CITIES    MOSUNNY   65  61  87 N6        29.92R
ST PAUL        MOSUNNY   65  60  84 NE6       29.92R
CRYSTAL        MOSUNNY   65  60  84 N7        29.92R HAZE
BLAINE         MOSUNNY   64  63  94 NE6       29.92R
LAKEVILLE      MOSUNNY   63  61  94 N3        29.92R
EDEN PRAIRIE   SUNNY     65  61  87 N7        29.92R FOG
SOUTH ST PAUL  MOSUNNY   65  61  84 NE5       29.92R
LAKE ELMO      FAIR      63  61  94 N5        29.93R
$$
MNZ001>005-007-008-013>017-022>024-027-028-301400-
   Northwest Minnesota

CITY           SKY/WX    TMP DP  RH WIND       PRES   REMARKS
BEMIDJI        SUNNY     58  54  86 E8        29.99S
HALLOCK        SUNNY     61  57  88 SE3       29.96R
ROSEAU         SUNNY     59  54  82 SE5       29.99S
WARROAD        MOSUNNY   61  55  82 SE6       30.00R
THIEF RVR FALL SUNNY     59  55  88 E8        29.98S
CROOKSTON      SUNNY     61  57  88 SE5       29.97R
FOSSTON        SUNNY     61  55  82 E3        29.97F
DETROIT LAKES  SUNNY     61  57  88 E3        29.98S
MOORHEAD       SUNNY     59  57  94 CALM      29.97R FOG
PARK RAPIDS    SUNNY     63  57  81 NE6       29.97S
MAHNOMEN       FAIR      59  58  95 E6        29.96F
$$
MNZ006-009>011-018-025>026-301400-
   North Central Minnesota

CITY           SKY/WX    TMP DP  RH WIND       PRES   REMARKS
BAUDETTE       MOSUNNY   58  53  84 E6        29.99S
FLAG ISLAND    MOSUNNY   61  52  72 SE7       29.99S
INTL FALLS     MOSUNNY   58  51  78 E7        30.00R
WASKISH        MOSUNNY   57  54  88 E5        29.99S
BIG FORK       MOSUNNY   57  54  88 NE3       30.00S
LONGVILLE      SUNNY     57  55  94 NE6       29.98R
GRAND RAPIDS   MOSUNNY   57  52  82 NE5       29.98S
ORR            CLOUDY    55  50  82 CALM      29.97R
COOK           CLOUDY    55  52  88 NE3       29.99R
WALKER         FAIR      59  55  88 NE3       29.98S
$$
MNZ012-019>021-037-301400-
   Northeast Minnesota

CITY           SKY/WX    TMP DP  RH WIND       PRES   REMARKS
DULUTH         CLOUDY    56  53  90 E10       29.97R
ELY            CLOUDY    54  46  76 E7        29.99R
HIBBING        MOSUNNY   58  53  84 VRB6      29.98R
EVELETH        CLOUDY    57  52  82 E8        29.99R
DULUTH HARBOR  CLOUDY    59  55  88 E24       29.98R
SILVER BAY     SUNNY     57  46  67 N7        29.96
GRAND MARAIS     N/A     56  41  57 E5        29.97R
G MARAIS ARPRT SUNNY     48  37  66 N14       29.98R
$$
MNZ029>031-032-039>041-046>048-054>057-064-301400-
   West Central Minnesota

CITY           SKY/WX    TMP DP  RH WIND       PRES   REMARKS
FERGUS FALLS   SUNNY     63  61  94 CALM      29.97R
WHEATON        MOSUNNY   61  61 100 CALM      29.98S FOG
MORRIS         SUNNY     63  61  94 CALM      29.96R
ALEXANDRIA     SUNNY     63  58  83 NE8       29.98R
ELBOW LAKE     FAIR      62  59  87 CALM      29.97R
WADENA         SUNNY     59  57  94 CALM      29.97R
GLENWOOD       SUNNY     63  59  88 NE5       29.97R
APPLETON         N/A     63  61  94 CALM      29.95R FOG
BENSON         SUNNY     64  59  82 CALM      29.96R
ORTONVILLE     MOSUNNY   63  61  94 CALM      29.96S FOG
MADISON        MOSUNNY   63  61  94 NW3       29.96R FOG
WILLMAR        FAIR      64  61  88 NE5       29.96R
$$
MNZ033>034-036-042>043-049>051-058-059-301400-
   Central Minnesota

CITY           SKY/WX    TMP DP  RH WIND       PRES   REMARKS
ST CLOUD       SUNNY     63  59  87 N5        29.95R
SAUK CENTRE    FAIR      62  58  88 N5        29.97R
PAYNESVILLE    SUNNY     60  57  90 N5        29.96S
AITKIN         MOSUNNY   61  54  77 NE7       29.95S
PINE RIVER     SUNNY     61  55  82 CALM      30.01R
BRAINERD       SUNNY     61  57  87 NE6       29.97R
STAPLES        SUNNY     59  55  88 CALM      29.97R
LONG PRAIRIE   FAIR      61  57  88 N3        29.97R
LITTLE FALLS   SUNNY     61  55  82 N3        29.95S
LITCHFIELD     SUNNY     64  63  94 N6        29.95S
BUFFALO        SUNNY     63  57  80 N6        29.96R
MAPLE LAKE     SUNNY     65  60  86 N5        29.95R
$$
MNZ037-044-045-052-053-301400-
   East Central Minnesota

CITY           SKY/WX    TMP DP  RH WIND       PRES   REMARKS
PRINCETON      MOSUNNY   63  59  88 N5        29.95R
MORA           MOSUNNY   59  55  88 NE3       29.96R
CAMBRIDGE      MOSUNNY   64  55  72 N3        29.92R
MOOSE LAKE     CLOUDY    59  59 100 N3        29.95R
HINCKLEY       CLOUDY    59  59 100 NE3       29.95R FOG
CLOQUET        CLOUDY    57  54  88 E9        29.97R
MCGREGOR       CLOUDY    59  55  88 NE3       29.97R
$$
MNZ071>073-080-081-089-090-097-098-301400-
   Southwest Minnesota

CITY           SKY/WX    TMP DP  RH WIND       PRES   REMARKS
MONTEVIDEO     SUNNY     63  63 100 CALM      29.97R FOG
GRANITE FALLS  SUNNY     62  62  99 CALM      29.98R FOG
CANBY          MOSUNNY   63  62  94 N5        29.97S
MARSHALL       MOSUNNY   63  57  82 N5          N/A
REDWOOD FALLS  SUNNY     65  61  87 CALM      29.95R FOG
OLIVIA         SUNNY     61  57  88 NE3       29.94R
PIPESTONE      CLOUDY    64  61  88 NE3       29.97R
WINDOM         SUNNY     64  63  94 NW7       29.96R FOG
WORTHINGTON    MOSUNNY   63  59  88 NW5       29.97S
JACKSON        SUNNY     64  63  94 NW5       29.96R FOG
TRACY          MOSUNNY   64  63  96 NW5       29.97R FOG
SLAYTON        MOSUNNY   63  62  99 CALM      29.98S FOG
$$
MNZ065>067-074>077-082>085-091>093-301400-
   South Central Minnesota

CITY           SKY/WX    TMP DP  RH WIND       PRES   REMARKS
MANKATO        SUNNY     64  61  88 N7        29.93R
NEW ULM        SUNNY     64  61  88 NE6       29.94R
ST JAMES       SUNNY     64  64 100 NW5       29.95R FOG
FAIRMONT       SUNNY     64  59  82 N9        29.94R
GLENCOE        SUNNY     64  62  90 CALM      29.94R
FARIBAULT      MOSUNNY   64  63  94 N6        29.93R FOG
OWATONNA       CLOUDY    63  61  94 CALM      29.93R FOG
WASECA         SUNNY     63  61  94 N7        29.94R FOG
ALBERT LEA     SUNNY     64  63  94 N6        29.92R FOG
$$
MNZ078>079-086>088-094>096-301400-
   Southeast Minnesota

CITY           SKY/WX    TMP DP  RH WIND       PRES   REMARKS
ROCHESTER      MOSUNNY   63  60  90 N8        29.92R FOG
RED WING       MOSUNNY   63  63 100 CALM      29.90R
DODGE CENTER   MOSUNNY   64  63  94 N7        29.92R FOG
WINONA         CLOUDY    61  61 100 CALM      29.90R FOG
AUSTIN         SUNNY     63  61  94 N7        29.91R FOG
PRESTON        MOSUNNY   61  58  91 N7        29.91R
$$
ABBREVIATIONS USED IN REMARKS
   TC - TEMPERATURES IN CELSIUS
  WCI - WIND CHILL INDEX
   HX - HEAT INDEX
  VSB - VISIBILITY
$$



USA.gov is the U.S. government's official web portal to all federal, state and local government web resources and services.